Time,TemperatureF,DewpointF,PressureIn,WindDirection,WindDirectionDegrees,WindSpeedMPH,WindSpeedGustMPH,Humidity,HourlyPrecipIn,Conditions,Clouds,dailyrainin,SoftwareType,DateUTC
2013-01-16 09:14:00,28.3,-99.9,30.61,ESE,109,0.0,0.0,-999,0.00,,,0.00,homebrew,2013-01-16 17:14:00,
2013-01-16 09:20:00,28.2,-99.9,30.60,ESE,109,0.0,0.0,-999,0.00,,,0.00,homebrew,2013-01-16 17:20:00,
2013-01-16 09:25:00,28.1,-99.9,30.61,ESE,109,0.0,0.0,-999,0.00,,,0.00,homebrew,2013-01-16 17:25:00,
2013-01-16 09:29:00,28.3,-99.9,30.60,ESE,109,0.0,0.0,-999,0.00,,,0.00,homebrew,2013-01-16 17:29:00,
2013-01-16 09:35:00,28.4,-99.9,30.60,ESE,109,0.0,0.0,-999,0.00,,,0.00,homebrew,2013-01-16 17:35:00,
2013-01-16 09:40:00,28.7,-99.9,30.60,ESE,109,0.0,0.0,-999,0.00,,,0.00,homebrew,2013-01-16 17:40:00,
2013-01-16 09:44:00,28.8,-99.9,30.60,ESE,109,0.0,0.0,-999,0.00,,,0.00,homebrew,2013-01-16 17:44:00,
2013-01-16 09:50:00,28.9,-99.9,30.60,ESE,109,0.0,0.0,-999,0.00,,,0.00,homebrew,2013-01-16 17:50:00,
2013-01-16 09:55:00,28.7,-99.9,30.60,ESE,109,0.0,0.0,-999,0.00,,,0.00,homebrew,2013-01-16 17:55:00,
2013-01-16 10:00:00,28.7,-99.9,30.60,ESE,109,0.0,0.0,-999,0.00,,,0.00,homebrew,2013-01-16 18:00:00,
2013-01-16 10:10:00,29.3,-99.9,30.60,ESE,109,0.0,0.0,-999,0.00,,,0.00,homebrew,2013-01-16 18:10:00,
2013-01-16 10:15:00,29.3,-99.9,30.60,ESE,109,0.0,0.0,-999,0.00,,,0.00,homebrew,2013-01-16 18:15:00,
2013-01-16 10:25:00,29.4,-99.9,30.59,ESE,109,0.0,0.0,-999,0.00,,,0.00,homebrew,2013-01-16 18:25:00,
2013-01-16 10:30:00,29.7,-99.9,30.59,ESE,109,0.0,0.0,-999,0.00,,,0.00,homebrew,2013-01-16 18:30:00,
2013-01-16 10:34:00,30.0,-99.9,30.59,ESE,109,0.0,0.0,-999,0.00,,,0.00,homebrew,2013-01-16 18:34:00,
2013-01-16 10:40:00,29.9,-99.9,30.59,ESE,109,0.0,0.0,-999,0.00,,,0.00,homebrew,2013-01-16 18:40:00,
2013-01-16 10:45:00,30.1,-99.9,30.59,ESE,109,0.0,0.0,-999,0.00,,,0.00,homebrew,2013-01-16 18:45:00,
2013-01-16 10:49:00,30.2,-99.9,30.59,ESE,109,0.0,0.0,-999,0.00,,,0.00,homebrew,2013-01-16 18:49:00,
2013-01-16 10:55:00,30.2,-99.9,30.59,ESE,109,0.0,0.0,-999,0.00,,,0.00,homebrew,2013-01-16 18:55:00,
2013-01-16 11:00:00,30.3,-99.9,30.59,ESE,109,0.0,0.0,-999,0.00,,,0.00,homebrew,2013-01-16 19:00:00,
2013-01-16 11:05:00,30.5,-99.9,30.58,ESE,109,0.0,0.0,-999,0.00,,,0.00,homebrew,2013-01-16 19:05:00,
2013-01-16 11:15:00,31.1,-99.9,30.58,ESE,109,0.0,0.0,-999,0.00,,,0.00,homebrew,2013-01-16 19:15:00,
2013-01-16 11:20:00,31.4,-99.9,30.58,ESE,109,0.0,0.0,-999,0.01,,,0.01,homebrew,2013-01-16 19:20:00,
2013-01-16 11:30:00,31.5,-99.9,30.58,ESE,109,0.0,0.0,-999,0.01,,,0.01,homebrew,2013-01-16 19:30:00,
2013-01-16 11:35:00,31.5,-99.9,30.58,ESE,109,0.0,0.0,-999,0.01,,,0.01,homebrew,2013-01-16 19:35:00,
2013-01-16 11:39:00,32.1,-99.9,30.58,ESE,109,0.0,0.0,-999,0.01,,,0.01,homebrew,2013-01-16 19:39:00,
2013-01-16 11:45:00,32.4,-99.9,30.58,ESE,109,0.0,0.0,-999,0.01,,,0.01,homebrew,2013-01-16 19:45:00,
2013-01-16 11:50:00,32.5,-99.9,30.58,ESE,109,0.0,0.0,-999,0.01,,,0.01,homebrew,2013-01-16 19:50:00,
2013-01-16 11:54:00,32.1,-99.9,30.58,ESE,109,0.0,0.0,-999,0.01,,,0.01,homebrew,2013-01-16 19:54:00,
2013-01-16 11:59:00,32.3,-99.9,30.58,SSW,193,0.1,1.0,-999,0.01,,,0.01,homebrew,2013-01-16 19:59:00,
2013-01-16 12:05:00,33.1,-99.9,30.58,SW,225,0.0,0.0,-999,0.01,,,0.01,homebrew,2013-01-16 20:05:00,
2013-01-16 12:10:00,33.3,-99.9,30.58,SW,225,0.0,0.0,-999,0.01,,,0.01,homebrew,2013-01-16 20:10:00,
2013-01-16 12:20:00,33.7,-99.9,30.58,SW,225,0.0,0.0,-999,0.00,,,0.01,homebrew,2013-01-16 20:20:00,
2013-01-16 12:25:00,33.7,-99.9,30.58,SW,225,0.0,0.0,-999,0.00,,,0.01,homebrew,2013-01-16 20:25:00,
2013-01-16 12:35:00,34.0,-99.9,30.57,SW,225,0.0,0.0,-999,0.00,,,0.01,homebrew,2013-01-16 20:35:00,
2013-01-16 12:40:00,34.5,-99.9,30.57,SW,225,0.0,0.0,-999,0.00,,,0.01,homebrew,2013-01-16 20:40:00,
2013-01-16 12:44:00,34.9,-99.9,30.57,SW,225,0.0,0.0,-999,0.00,,,0.01,homebrew,2013-01-16 20:44:00,
2013-01-16 12:50:00,35.0,-99.9,30.57,SW,225,0.0,0.0,-999,0.00,,,0.01,homebrew,2013-01-16 20:50:00,
2013-01-16 12:55:00,35.0,-99.9,30.56,SW,225,0.0,0.0,-999,0.00,,,0.01,homebrew,2013-01-16 20:55:00,
2013-01-16 12:59:00,34.9,-99.9,30.56,SW,225,0.0,0.0,-999,0.00,,,0.01,homebrew,2013-01-16 20:59:00,
2013-01-16 13:04:00,35.0,-99.9,30.56,SW,225,0.0,0.0,-999,0.00,,,0.01,homebrew,2013-01-16 21:04:00,
2013-01-16 13:10:00,35.1,-99.9,30.56,SW,225,0.0,0.0,-999,0.00,,,0.01,homebrew,2013-01-16 21:10:00,
2013-01-16 13:15:00,35.2,-99.9,30.56,SW,225,0.0,0.0,-999,0.00,,,0.01,homebrew,2013-01-16 21:15:00,
2013-01-16 13:25:00,36.1,-99.9,30.56,SW,225,0.0,0.0,-999,0.00,,,0.01,homebrew,2013-01-16 21:25:00,
2013-01-16 13:30:00,36.7,-99.9,30.55,SSE,168,0.7,0.0,-999,0.00,,,0.01,homebrew,2013-01-16 21:30:00,
2013-01-16 13:40:00,38.1,-99.9,30.55,ESE,115,0.0,1.8,-999,0.00,,,0.01,homebrew,2013-01-16 21:40:00,
2013-01-16 13:45:00,38.6,-99.9,30.55,SW,225,0.4,1.1,-999,0.00,,,0.01,homebrew,2013-01-16 21:45:00,
2013-01-16 13:50:00,38.7,-99.9,30.54,West,260,0.0,1.6,-999,0.00,,,0.01,homebrew,2013-01-16 21:50:00,
2013-01-16 14:00:00,39.9,-99.9,30.54,West,262,0.1,0.0,-999,0.00,,,0.01,homebrew,2013-01-16 22:00:00,
2013-01-16 14:05:00,40.1,-99.9,30.54,WNW,297,1.3,3.9,-999,0.00,,,0.01,homebrew,2013-01-16 22:05:00,
2013-01-16 14:15:00,40.0,-99.9,30.54,WNW,298,0.5,2.7,-999,0.00,,,0.01,homebrew,2013-01-16 22:15:00,
2013-01-16 14:20:00,41.1,-99.9,30.54,SW,230,0.1,1.9,-999,0.00,,,0.01,homebrew,2013-01-16 22:20:00,
2013-01-16 14:30:00,40.9,-99.9,30.54,West,269,1.0,2.8,-999,0.00,,,0.01,homebrew,2013-01-16 22:30:00,
2013-01-16 14:35:00,40.3,-99.9,30.54,SSW,201,0.3,3.2,-999,0.00,,,0.01,homebrew,2013-01-16 22:35:00,
2013-01-16 14:39:00,40.2,-99.9,30.54,WNW,282,0.0,0.6,-999,0.00,,,0.01,homebrew,2013-01-16 22:39:00,
2013-01-16 14:45:00,40.1,-99.9,30.54,WNW,282,0.0,0.0,-999,0.00,,,0.01,homebrew,2013-01-16 22:45:00,
2013-01-16 14:50:00,40.0,-99.9,30.53,WNW,282,0.0,0.0,-999,0.00,,,0.01,homebrew,2013-01-16 22:50:00,
2013-01-16 14:54:00,40.1,-99.9,30.53,SW,220,0.8,0.0,-999,0.00,,,0.01,homebrew,2013-01-16 22:54:00,
2013-01-16 14:59:00,40.3,-99.9,30.54,SE,128,0.9,2.2,-999,0.00,,,0.01,homebrew,2013-01-16 22:59:00,
2013-01-16 15:05:00,40.7,-99.9,30.54,ENE,60,0.2,2.3,-999,0.00,,,0.01,homebrew,2013-01-16 23:05:00,
2013-01-16 15:10:00,41.0,-99.9,30.53,NE,34,0.2,2.1,-999,0.00,,,0.01,homebrew,2013-01-16 23:10:00,
2013-01-16 15:20:00,43.4,-99.9,30.53,NW,321,0.2,0.0,-999,0.00,,,0.01,homebrew,2013-01-16 23:20:00,
2013-01-16 15:25:00,43.4,-99.9,30.53,WNW,288,0.5,1.5,-999,0.00,,,0.01,homebrew,2013-01-16 23:25:00,
2013-01-16 15:29:00,43.5,-99.9,30.53,NW,304,0.2,1.6,-999,0.00,,,0.01,homebrew,2013-01-16 23:29:00,
2013-01-16 15:35:00,43.9,-99.9,30.53,WSW,249,0.1,0.4,-999,0.00,,,0.01,homebrew,2013-01-16 23:35:00,
2013-01-16 15:40:00,43.0,-99.9,30.53,SE,125,0.0,1.1,-999,0.00,,,0.01,homebrew,2013-01-16 23:40:00,
2013-01-16 15:44:00,42.5,-99.9,30.53,SE,126,0.0,0.0,-999,0.00,,,0.01,homebrew,2013-01-16 23:44:00,
2013-01-16 15:50:00,42.7,-99.9,30.53,SE,126,0.0,0.0,-999,0.00,,,0.01,homebrew,2013-01-16 23:50:00,
2013-01-16 15:55:00,42.6,-99.9,30.53,SE,126,0.0,0.0,-999,0.00,,,0.01,homebrew,2013-01-16 23:55:00,
2013-01-16 15:59:00,41.9,-99.9,30.52,SE,126,0.0,0.0,-999,0.00,,,0.01,homebrew,2013-01-16 23:59:00,
2013-01-16 16:04:00,41.6,-99.9,30.52,SE,126,0.0,0.0,-999,0.00,,,0.01,homebrew,2013-01-17 00:04:00,
2013-01-16 16:10:00,40.8,-99.9,30.52,SE,126,0.0,0.0,-999,0.00,,,0.01,homebrew,2013-01-17 00:10:00,
2013-01-16 16:15:00,40.4,-99.9,30.52,SE,126,0.0,0.0,-999,0.00,,,0.01,homebrew,2013-01-17 00:15:00,
2013-01-16 16:25:00,39.6,-99.9,30.52,SE,126,0.0,0.0,-999,0.00,,,0.01,homebrew,2013-01-17 00:25:00,
2013-01-16 16:30:00,39.6,-99.9,30.52,SE,126,0.0,0.0,-999,0.00,,,0.01,homebrew,2013-01-17 00:30:00,
2013-01-16 16:34:00,39.3,-99.9,30.52,SE,126,0.0,0.0,-999,0.00,,,0.01,homebrew,2013-01-17 00:34:00,
2013-01-16 16:40:00,39.0,-99.9,30.52,SE,126,0.0,0.0,-999,0.00,,,0.01,homebrew,2013-01-17 00:40:00,
2013-01-16 16:45:00,38.8,-99.9,30.52,SE,126,0.0,0.0,-999,0.00,,,0.01,homebrew,2013-01-17 00:45:00,
2013-01-16 16:49:00,38.7,-99.9,30.51,SE,126,0.0,0.0,-999,0.00,,,0.01,homebrew,2013-01-17 00:49:00,
2013-01-16 16:54:00,38.6,-99.9,30.51,SE,126,0.0,0.0,-999,0.00,,,0.01,homebrew,2013-01-17 00:54:00,
2013-01-16 17:00:00,38.3,-99.9,30.51,SE,126,0.0,0.0,-999,0.00,,,0.01,homebrew,2013-01-17 01:00:00,
2013-01-16 17:04:00,38.4,-99.9,30.51,SE,126,0.0,0.0,-999,0.00,,,0.01,homebrew,2013-01-17 01:04:00,
2013-01-16 17:09:00,38.2,-99.9,30.51,SE,126,0.0,0.0,-999,0.00,,,0.01,homebrew,2013-01-17 01:09:00,
2013-01-16 17:15:00,38.0,-99.9,30.51,SE,126,0.0,0.0,-999,0.00,,,0.01,homebrew,2013-01-17 01:15:00,
2013-01-16 17:20:00,37.6,-99.9,30.51,SE,126,0.0,0.0,-999,0.00,,,0.01,homebrew,2013-01-17 01:20:00,
2013-01-16 17:30:00,37.2,-99.9,30.51,SE,126,0.0,0.0,-999,0.00,,,0.01,homebrew,2013-01-17 01:30:00,
2013-01-16 17:35:00,37.1,-99.9,30.51,SE,126,0.0,0.0,-999,0.00,,,0.01,homebrew,2013-01-17 01:35:00,
2013-01-16 17:39:00,37.2,-99.9,30.51,SE,126,0.0,0.0,-999,0.00,,,0.01,homebrew,2013-01-17 01:39:00,
2013-01-16 17:45:00,37.1,-99.9,30.52,SE,126,0.0,0.0,-999,0.00,,,0.01,homebrew,2013-01-17 01:45:00,
2013-01-16 17:50:00,36.8,-99.9,30.52,SE,126,0.0,0.0,-999,0.00,,,0.01,homebrew,2013-01-17 01:50:00,
2013-01-16 17:54:00,36.7,-99.9,30.52,SE,126,0.0,0.0,-999,0.00,,,0.01,homebrew,2013-01-17 01:54:00,
2013-01-16 17:59:00,36.6,-99.9,30.52,SE,126,0.0,0.0,-999,0.00,,,0.01,homebrew,2013-01-17 01:59:00,
2013-01-16 18:05:00,36.3,-99.9,30.52,NE,47,0.1,0.9,-999,0.00,,,0.01,homebrew,2013-01-17 02:05:00,
2013-01-16 18:10:00,35.9,-99.9,30.52,NE,43,0.0,0.0,-999,0.00,,,0.01,homebrew,2013-01-17 02:10:00,
2013-01-16 18:20:00,35.6,-99.9,30.52,NE,43,0.0,0.0,-999,0.00,,,0.01,homebrew,2013-01-17 02:20:00,
2013-01-16 18:25:00,35.4,-99.9,30.52,NE,43,0.0,0.0,-999,0.00,,,0.01,homebrew,2013-01-17 02:25:00,
2013-01-16 18:35:00,35.4,-99.9,30.52,NE,43,0.0,0.0,-999,0.00,,,0.01,homebrew,2013-01-17 02:35:00,
2013-01-16 18:40:00,35.3,-99.9,30.52,NE,43,0.0,0.0,-999,0.00,,,0.01,homebrew,2013-01-17 02:40:00,
2013-01-16 18:44:00,35.2,-99.9,30.52,NE,43,0.0,0.0,-999,0.00,,,0.01,homebrew,2013-01-17 02:44:00,
2013-01-16 18:50:00,35.1,-99.9,30.52,NE,46,0.2,0.0,-999,0.00,,,0.01,homebrew,2013-01-17 02:50:00,
2013-01-16 18:55:00,35.0,-99.9,30.52,ENE,68,0.1,1.6,-999,0.00,,,0.01,homebrew,2013-01-17 02:55:00,
2013-01-16 18:59:00,34.9,-99.9,30.52,ENE,59,0.1,0.0,-999,0.00,,,0.01,homebrew,2013-01-17 02:59:00,
2013-01-16 19:04:00,34.7,-99.9,30.52,NE,54,1.4,3.2,-999,0.00,,,0.01,homebrew,2013-01-17 03:04:00,
2013-01-16 19:10:00,34.6,-99.9,30.52,NE,52,0.9,3.2,-999,0.00,,,0.01,homebrew,2013-01-17 03:10:00,
2013-01-16 19:15:00,34.6,-99.9,30.51,NE,41,0.3,3.3,-999,0.00,,,0.01,homebrew,2013-01-17 03:15:00,
2013-01-16 19:25:00,34.6,-99.9,30.51,East,85,1.6,2.2,-999,0.00,,,0.01,homebrew,2013-01-17 03:25:00,
2013-01-16 19:30:00,34.7,-99.9,30.51,ENE,74,1.0,4.5,-999,0.00,,,0.01,homebrew,2013-01-17 03:30:00,
2013-01-16 19:34:00,34.6,-99.9,30.51,NNE,30,0.1,3.2,-999,0.00,,,0.01,homebrew,2013-01-17 03:34:00,
2013-01-16 19:40:00,34.4,-99.9,30.51,NNE,23,0.2,0.7,-999,0.00,,,0.01,homebrew,2013-01-17 03:40:00,
2013-01-16 19:45:00,34.5,-99.9,30.51,ESE,110,0.1,1.2,-999,0.00,,,0.01,homebrew,2013-01-17 03:45:00,
2013-01-16 19:49:00,34.4,-99.9,30.51,ESE,112,0.0,0.0,-999,0.00,,,0.01,homebrew,2013-01-17 03:49:00,
2013-01-16 19:55:00,34.3,-99.9,30.51,NE,41,1.4,3.1,-999,0.00,,,0.01,homebrew,2013-01-17 03:55:00,
2013-01-16 20:00:00,34.0,-99.9,30.51,NNE,26,0.2,3.0,-999,0.00,,,0.01,homebrew,2013-01-17 04:00:00,
2013-01-16 20:04:00,33.9,-99.9,30.51,NNE,25,0.1,1.7,-999,0.00,,,0.01,homebrew,2013-01-17 04:04:00,
2013-01-16 20:09:00,33.9,-99.9,30.51,WSW,245,0.1,1.5,-999,0.00,,,0.01,homebrew,2013-01-17 04:09:00,
2013-01-16 20:15:00,33.7,-99.9,30.51,NNW,347,0.0,0.0,-999,0.00,,,0.01,homebrew,2013-01-17 04:15:00,
2013-01-16 20:20:00,33.6,-99.9,30.51,NNW,347,0.0,0.0,-999,0.00,,,0.01,homebrew,2013-01-17 04:20:00,
2013-01-16 20:30:00,33.4,-99.9,30.50,NNW,347,0.0,0.0,-999,0.00,,,0.01,homebrew,2013-01-17 04:30:00,
2013-01-16 20:35:00,33.3,-99.9,30.50,NNW,347,0.0,0.0,-999,0.00,,,0.01,homebrew,2013-01-17 04:35:00,
2013-01-16 20:39:00,33.2,-99.9,30.50,NNW,347,0.0,0.0,-999,0.00,,,0.01,homebrew,2013-01-17 04:39:00,
2013-01-16 20:45:00,33.1,-99.9,30.49,NNW,347,0.0,0.0,-999,0.00,,,0.01,homebrew,2013-01-17 04:45:00,
2013-01-16 20:50:00,32.9,-99.9,30.50,NNW,347,0.0,0.0,-999,0.00,,,0.01,homebrew,2013-01-17 04:50:00,
2013-01-16 20:54:00,32.7,-99.9,30.50,NNW,347,0.0,0.0,-999,0.00,,,0.01,homebrew,2013-01-17 04:54:00,
2013-01-16 21:00:00,32.7,-99.9,30.50,East,84,1.8,3.7,-999,0.00,,,0.01,homebrew,2013-01-17 05:00:00,
2013-01-16 21:05:00,32.8,-99.9,30.49,ENE,65,1.5,3.4,-999,0.00,,,0.01,homebrew,2013-01-17 05:05:00,
2013-01-16 21:10:00,32.9,-99.9,30.49,ENE,60,0.0,2.6,-999,0.00,,,0.01,homebrew,2013-01-17 05:10:00,
2013-01-16 21:14:00,32.8,-99.9,30.49,ENE,61,0.0,0.0,-999,0.00,,,0.01,homebrew,2013-01-17 05:14:00,
2013-01-16 21:20:00,32.8,-99.9,30.49,ENE,61,0.0,0.0,-999,0.00,,,0.01,homebrew,2013-01-17 05:20:00,
2013-01-16 21:25:00,32.7,-99.9,30.49,ENE,61,0.0,0.0,-999,0.00,,,0.01,homebrew,2013-01-17 05:25:00,
2013-01-16 21:29:00,32.5,-99.9,30.48,ENE,61,0.0,0.0,-999,0.00,,,0.01,homebrew,2013-01-17 05:29:00,
2013-01-16 21:35:00,32.4,-99.9,30.49,ENE,61,0.0,0.0,-999,0.00,,,0.01,homebrew,2013-01-17 05:35:00,
2013-01-16 21:40:00,32.2,-99.9,30.49,ENE,61,0.0,0.0,-999,0.00,,,0.01,homebrew,2013-01-17 05:40:00,
2013-01-16 21:44:00,32.0,-99.9,30.49,SSE,166,0.7,0.0,-999,0.00,,,0.01,homebrew,2013-01-17 05:44:00,
2013-01-16 21:50:00,32.4,-99.9,30.49,WNW,297,0.3,2.6,-999,0.00,,,0.01,homebrew,2013-01-17 05:50:00,
2013-01-16 21:55:00,32.2,-99.9,30.49,NW,315,0.0,0.9,-999,0.00,,,0.01,homebrew,2013-01-17 05:55:00,
2013-01-16 21:59:00,32.0,-99.9,30.49,NW,315,0.0,0.0,-999,0.00,,,0.01,homebrew,2013-01-17 05:59:00,
2013-01-16 22:05:00,31.7,-99.9,30.49,NW,315,0.0,0.0,-999,0.00,,,0.01,homebrew,2013-01-17 06:05:00,
2013-01-16 22:10:00,31.7,-99.9,30.49,NW,315,0.0,0.0,-999,0.00,,,0.01,homebrew,2013-01-17 06:10:00,
2013-01-16 22:15:00,31.4,-99.9,30.49,NW,315,0.0,0.0,-999,0.00,,,0.01,homebrew,2013-01-17 06:15:00,
2013-01-16 22:25:00,30.3,-99.9,30.49,NW,315,0.0,0.0,-999,0.00,,,0.01,homebrew,2013-01-17 06:25:00,
2013-01-16 22:30:00,30.2,-99.9,30.49,NW,315,0.0,0.0,-999,0.00,,,0.01,homebrew,2013-01-17 06:30:00,
2013-01-16 22:34:00,30.6,-99.9,30.49,NW,315,0.0,0.0,-999,0.00,,,0.01,homebrew,2013-01-17 06:34:00,
2013-01-16 22:40:00,31.0,-99.9,30.49,NW,315,0.0,0.0,-999,0.00,,,0.01,homebrew,2013-01-17 06:40:00,
2013-01-16 22:45:00,31.2,-99.9,30.48,NW,315,0.0,0.0,-999,0.00,,,0.01,homebrew,2013-01-17 06:45:00,
2013-01-16 22:49:00,31.2,-99.9,30.48,NW,315,0.0,0.0,-999,0.00,,,0.01,homebrew,2013-01-17 06:49:00,
2013-01-16 22:55:00,31.1,-99.9,30.49,NW,315,0.0,0.0,-999,0.00,,,0.01,homebrew,2013-01-17 06:55:00,
2013-01-16 23:00:00,30.9,-99.9,30.49,NW,315,0.0,0.0,-999,0.00,,,0.01,homebrew,2013-01-17 07:00:00,
2013-01-16 23:04:00,31.0,-99.9,30.49,ENE,62,0.8,2.9,-999,0.00,,,0.01,homebrew,2013-01-17 07:04:00,
2013-01-16 23:09:00,31.2,-99.9,30.49,ENE,67,0.1,2.4,-999,0.00,,,0.01,homebrew,2013-01-17 07:09:00,
2013-01-16 23:15:00,31.1,-99.9,30.49,ENE,68,0.0,0.0,-999,0.00,,,0.01,homebrew,2013-01-17 07:15:00,
2013-01-16 23:20:00,30.9,-99.9,30.48,ENE,63,0.9,0.0,-999,0.00,,,0.01,homebrew,2013-01-17 07:20:00,
2013-01-16 23:30:00,30.8,-99.9,30.49,NNE,29,0.0,3.2,-999,0.00,,,0.01,homebrew,2013-01-17 07:30:00,
2013-01-16 23:35:00,30.6,-99.9,30.48,NNE,29,0.0,0.0,-999,0.00,,,0.01,homebrew,2013-01-17 07:35:00,
2013-01-16 23:39:00,30.6,-99.9,30.48,NNE,29,0.0,0.0,-999,0.00,,,0.01,homebrew,2013-01-17 07:39:00,
2013-01-16 23:45:00,30.6,-99.9,30.48,NNE,29,0.0,0.0,-999,0.00,,,0.00,homebrew,2013-01-17 07:45:00,
2013-01-16 23:50:00,30.6,-99.9,30.48,NNE,29,0.0,0.0,-999,0.00,,,0.00,homebrew,2013-01-17 07:50:00,
2013-01-16 23:54:00,30.6,-99.9,30.48,NNE,29,0.0,0.0,-999,0.00,,,0.00,homebrew,2013-01-17 07:54:00,